[[{"header":{"parameterUnit":"m.s-1","parameterCategory":1,"la1":30.2991,"la2":30.254,"lo1":-89.0895,"lo2":-89.0444,"dy":0.0017,"dx":0.0017,"nx":28,"ny":28,"refTime":"2025-09-06T09:00:00:Z","depth":0,"parameterNumber":2,"parameterNumberName":"U-component_of_WINDS"},"data":[0,0,0,0,0,0,0,0,0,0,0,0,0,0,0,0,0,0,0,0,0,0,0,0,0,0,0,0,0,0,0,0,0,0,0,0,0,0,0,0,0,0,0,0,0,0,0,0,0,0,0,0,0,0,0,0,0,0,-0.4218,-0.4217,0,-0.4133,-0.4132,-0.4131,-0.4069,-0.4068,-0.4068,-0.4067,-0.3977,-0.3975,-0.3973,0,0,0,0,0,0,0,0,0,0,0,0,0,-0.4326,-0.4325,-0.4218,-0.4217,-0.4216,-0.4133,-0.4132,-0.413,-0.4069,-0.4068,-0.4068,-0.4067,-0.3978,-0.3975,-0.3973,0,0,0,0,0,0,0,0,0,0,0,0,0,-0.4264,-0.4324,-0.4218,-0.4175,-0.417,-0.4133,-0.4131,-0.413,-0.4069,-0.4068,-0.4067,-0.4067,-0.3978,-0.3976,-0.3973,-0.397,0,0,-0.3964,-0.3963,0,0,0,0,0,0,0,0,-0.4267,-0.426,-0.4182,-0.4178,-0.4173,-0.4111,-0.4137,-0.4076,-0.4069,-0.4107,-0.4067,-0.4066,-0.4022,-0.4015,-0.4001,-0.3966,-0.3962,-0.3964,-0.3962,-0.3961,-0.396,0,0,0,0,0,0,0,-0.4272,-0.4263,-0.4184,-0.4181,-0.4175,-0.416,-0.415,-0.4125,-0.407,-0.4104,-0.4099,-0.409,-0.4019,-0.4004,-0.3998,-0.3961,-0.3964,-0.3961,-0.3959,-0.3958,-0.3921,-0.3922,0,0,0,0,0,0,-0.4283,-0.4267,-0.4187,-0.4181,-0.4219,-0.4158,-0.4147,-0.4131,-0.407,-0.406,-0.4091,-0.4088,-0.4009,-0.4002,-0.3995,-0.3989,-0.3961,-0.3958,-0.3956,-0.3921,-0.3922,-0.3922,0,0,0,0,0,0,-0.4286,-0.4277,-0.419,-0.4223,-0.4211,-0.4157,-0.414,-0.413,-0.4115,-0.406,-0.405,-0.4086,-0.4008,-0.3999,-0.3977,-0.3985,-0.3957,-0.3954,-0.392,-0.3921,-0.3922,-0.3977,0,0,0,0,0,0,-0.4289,-0.4278,-0.4277,-0.4224,-0.4209,-0.4175,-0.414,-0.4129,-0.411,-0.4105,-0.4052,-0.4043,-0.4007,-0.3982,-0.3975,-0.3981,-0.3952,-0.3919,-0.392,-0.3922,-0.3974,-0.398,-0.3985,0,0,0,0,0,-0.4293,-0.4295,-0.4277,-0.4267,-0.4207,-0.4175,-0.4167,-0.4126,-0.4111,-0.4109,-0.4075,-0.4045,-0.3986,-0.398,-0.3971,-0.3977,-0.3918,-0.392,-0.3922,-0.3972,-0.3979,-0.3985,0,0,0,0,0,0,-0.4348,-0.4287,-0.4266,-0.4251,-0.4219,-0.4165,-0.4161,-0.4135,-0.4106,-0.4102,-0.4052,-0.404,-0.4025,-0.3998,-0.3994,-0.3972,-0.3948,-0.3948,-0.399,-0.3996,-0.4001,-0.4008,-0.3949,0,0,0,0,0,-0.4359,-0.4339,-0.4286,-0.4277,-0.4263,-0.4215,-0.42,-0.4171,-0.4136,-0.4122,-0.4085,-0.4051,-0.4025,-0.4009,-0.3982,-0.3971,-0.3959,-0.397,-0.3975,-0.398,-0.398,-0.3974,-0.3979,-0.3928,-0.3928,-0.3928,0,0,-0.438,-0.4344,-0.4334,-0.4288,-0.426,-0.424,-0.4204,-0.4184,-0.4169,-0.4118,-0.4096,-0.4069,-0.4028,-0.4012,-0.4003,-0.3989,-0.3992,-0.3982,-0.3986,-0.3984,-0.3976,-0.3981,-0.3985,-0.3929,-0.3929,-0.3929,0,0,-0.4409,-0.438,-0.437,-0.4343,-0.4302,-0.427,-0.4268,-0.4219,-0.4199,-0.4176,-0.4138,-0.4119,-0.4075,-0.4048,-0.4028,-0.405,-0.4021,-0.4042,-0.4069,-0.4064,-0.4068,-0.4071,-0.4079,-0.4083,-0.4043,-0.4043,-0.4043,0,-0.444,-0.441,-0.4368,-0.4351,-0.4332,-0.4287,-0.4277,-0.4253,-0.4204,-0.4192,-0.4178,-0.4123,-0.4092,-0.407,-0.4076,-0.4061,-0.4057,-0.4048,-0.4071,-0.4073,-0.4076,-0.4084,-0.4087,-0.4046,-0.4045,-0.4045,-0.4045,0,-0.4451,-0.4431,-0.4428,-0.4384,-0.4365,-0.4351,-0.4307,-0.4293,-0.4266,-0.4237,-0.4215,-0.4177,-0.4142,-0.4134,-0.4108,-0.4109,-0.4102,-0.408,-0.4055,-0.4084,-0.4091,-0.4093,-0.405,-0.4049,-0.4048,-0.4047,0,0,-0.4511,-0.4446,-0.4446,-0.4426,-0.4378,-0.4361,-0.4346,-0.4313,-0.4302,-0.4271,-0.4257,-0.4222,-0.4202,-0.418,-0.415,-0.4145,-0.4166,-0.4124,-0.4122,-0.4134,-0.4166,-0.4184,-0.4188,-0.4147,-0.4148,-0.4148,-0.417,0,-0.4533,-0.4505,-0.4468,-0.4452,-0.4433,-0.439,-0.4378,-0.4347,-0.4319,-0.4299,-0.4267,-0.4244,-0.4219,-0.4205,-0.4199,-0.4165,-0.4172,-0.4163,-0.4134,-0.4134,-0.4147,-0.4191,-0.4209,-0.4232,-0.4172,-0.4173,-0.4173,0,-0.4555,-0.4528,-0.451,-0.4466,-0.4456,-0.4446,-0.4413,-0.4395,-0.4359,-0.4339,-0.4316,-0.4285,-0.4267,-0.4245,-0.422,-0.4215,-0.4201,-0.4183,-0.4183,-0.4179,-0.4155,-0.4189,-0.4238,-0.4242,-0.4176,-0.4176,-0.4176,0,-0.4602,-0.4561,-0.4545,-0.453,-0.4477,-0.447,-0.4448,-0.4412,-0.4395,-0.4367,-0.4356,-0.4325,-0.4309,-0.4286,-0.4248,-0.4235,-0.4228,-0.4202,-0.4211,-0.4212,-0.4211,-0.4212,-0.4259,-0.4202,-0.4202,-0.4201,-0.4201,0,-0.4631,-0.4622,-0.4566,-0.4557,-0.4546,-0.4503,-0.4494,-0.4467,-0.4436,-0.4421,-0.4382,-0.4368,-0.4318,-0.4299,-0.4268,-0.4253,-0.4246,-0.423,-0.4222,-0.4233,-0.4236,-0.4224,-0.4221,-0.4202,-0.4202,-0.4202,-0.4202,0,-0.4681,-0.4643,-0.4624,-0.4577,-0.4564,-0.4559,-0.4518,-0.4507,-0.4478,-0.4459,-0.4452,-0.4406,-0.4382,-0.4341,-0.4304,-0.4284,-0.4275,-0.4261,-0.4287,-0.4283,-0.4294,-0.4294,-0.4336,-0.434,-0.428,-0.4281,-0.4281,0,-0.4703,-0.4695,-0.4647,-0.4635,-0.4614,-0.4595,-0.4578,-0.4536,-0.452,-0.448,-0.4475,-0.4448,-0.4424,-0.4387,-0.435,-0.4322,-0.4307,-0.4324,-0.4303,-0.4315,-0.4309,-0.431,-0.431,-0.4329,-0.433,-0.4331,-0.4331,0,-0.4745,-0.4727,-0.4705,-0.4677,-0.4658,-0.4634,-0.4607,-0.4599,-0.4551,-0.4535,-0.4511,-0.4492,-0.4456,-0.443,-0.4397,-0.4373,-0.4345,-0.4338,-0.4339,-0.4351,-0.4367,-0.436,-0.4302,-0.4338,-0.4337,-0.4336,-0.4336,-0.4336,-0.4782,-0.4774,-0.4739,-0.4716,-0.4693,-0.4669,-0.4658,-0.4628,-0.4607,-0.4574,-0.4551,-0.4528,-0.4494,-0.4447,-0.4426,-0.4407,-0.4394,-0.4395,-0.4395,-0.4396,-0.4402,-0.437,-0.4401,-0.4401,-0.44,-0.44,-0.44,0,-0.4822,-0.4799,-0.4778,-0.4743,-0.4726,-0.4701,-0.4671,-0.4658,-0.4639,-0.461,-0.4588,-0.456,-0.4535,-0.4497,-0.4469,-0.4462,-0.4448,-0.4456,-0.4456,-0.4451,-0.4414,-0.4417,-0.4467,-0.4467,-0.4467,-0.4467,-0.4467,-0.4467,-0.4842,-0.4828,-0.4806,-0.478,-0.4756,-0.4735,-0.472,-0.4698,-0.4675,-0.4647,-0.4626,-0.4602,-0.4569,-0.4539,-0.4515,-0.4504,-0.4496,-0.4509,-0.4494,-0.446,-0.4454,-0.4448,-0.445,-0.4507,-0.4507,-0.4533,-0.4533,-0.4533]},{"header":{"parameterUnit":"m.s-1","parameterCategory":1,"la1":30.2991,"la2":30.254,"lo1":-89.0895,"lo2":-89.0444,"dy":0.0017,"dx":0.0017,"nx":28,"ny":28,"refTime":"2025-09-06T09:00:00:Z","depth":0,"parameterNumber":3,"parameterNumberName":"V-component_of_WINDS"},"data":[0,0,0,0,0,0,0,0,0,0,0,0,0,0,0,0,0,0,0,0,0,0,0,0,0,0,0,0,0,0,0,0,0,0,0,0,0,0,0,0,0,0,0,0,0,0,0,0,0,0,0,0,0,0,0,0,0,0,2.3582,2.3581,0,2.352,2.3519,2.3518,2.3549,2.3551,2.3553,2.3554,2.3482,2.3479,2.3475,0,0,0,0,0,0,0,0,0,0,0,0,0,2.3719,2.3717,2.3582,2.3581,2.358,2.352,2.3519,2.3518,2.3549,2.3551,2.3553,2.3555,2.3483,2.3479,2.3475,0,0,0,0,0,0,0,0,0,0,0,0,0,2.3658,2.3716,2.3582,2.3589,2.3589,2.352,2.3519,2.3518,2.3549,2.3551,2.3553,2.3556,2.3485,2.348,2.3474,2.3393,0,0,2.3459,2.3456,0,0,0,0,0,0,0,0,2.3662,2.3653,2.3589,2.3588,2.3588,2.3545,2.3541,2.3476,2.3548,2.3563,2.3554,2.3557,2.35,2.3494,2.3477,2.339,2.3387,2.3458,2.3455,2.3453,2.3451,0,0,0,0,0,0,0,2.3666,2.3656,2.3557,2.3587,2.3587,2.3592,2.3586,2.3529,2.3519,2.3562,2.3564,2.3557,2.3501,2.3482,2.3475,2.3386,2.3458,2.3454,2.3451,2.3449,2.3226,2.3224,0,0,0,0,0,0,2.3671,2.3659,2.3559,2.3555,2.3632,2.3588,2.3581,2.3556,2.3519,2.3516,2.3555,2.3559,2.3489,2.3481,2.3473,2.3373,2.3453,2.3448,2.3445,2.3229,2.3226,2.3223,0,0,0,0,0,0,2.3674,2.3662,2.3562,2.3608,2.3596,2.3583,2.3554,2.3554,2.3535,2.3514,2.3512,2.3538,2.3491,2.348,2.3413,2.3371,2.3446,2.3441,2.3232,2.3228,2.3224,2.3175,0,0,0,0,0,0,2.3678,2.3663,2.3634,2.3607,2.3593,2.3505,2.3552,2.3551,2.3527,2.3531,2.3497,2.3494,2.3492,2.342,2.3408,2.3366,2.3437,2.3236,2.323,2.3225,2.318,2.317,2.3161,0,0,0,0,0,2.3683,2.3621,2.3632,2.362,2.3557,2.3503,2.3494,2.3495,2.3523,2.3492,2.3479,2.3495,2.3379,2.3413,2.3399,2.3355,2.3238,2.3232,2.3226,2.3184,2.3172,2.3161,0,0,0,0,0,0,2.364,2.3618,2.363,2.3558,2.3532,2.3508,2.3469,2.3482,2.3446,2.3451,2.3452,2.3444,2.3373,2.3358,2.3397,2.3273,2.3312,2.3303,2.3286,2.3273,2.3264,2.3268,2.3433,0,0,0,0,0,2.3623,2.3583,2.3565,2.3503,2.349,2.3482,2.3458,2.3462,2.3434,2.3422,2.3404,2.3374,2.333,2.3301,2.326,2.3179,2.317,2.3141,2.3132,2.3124,2.3114,2.3068,2.3054,2.3202,2.3202,2.3202,0,0,2.3586,2.3569,2.3543,2.3494,2.3475,2.3431,2.3472,2.3424,2.3391,2.3414,2.3349,2.3335,2.3301,2.3226,2.3192,2.3211,2.3072,2.3116,2.3109,2.3104,2.306,2.3046,2.3033,2.3198,2.3198,2.3199,0,0,2.3496,2.348,2.3427,2.3406,2.3377,2.3372,2.3359,2.3333,2.3325,2.3261,2.3277,2.3236,2.3161,2.3136,2.3113,2.3014,2.3026,2.3,2.2948,2.2902,2.289,2.288,2.2842,2.2828,2.2992,2.2992,2.2992,0,2.3452,2.339,2.3396,2.3347,2.3324,2.3346,2.329,2.3269,2.3226,2.3209,2.3231,2.3138,2.3117,2.3035,2.3011,2.2993,2.2975,2.3003,2.2892,2.2882,2.2872,2.2835,2.2821,2.2988,2.2989,2.2989,2.2989,0,2.3337,2.3293,2.3252,2.3213,2.3186,2.3133,2.3129,2.31,2.3106,2.3098,2.303,2.3006,2.296,2.2941,2.2946,2.2859,2.2871,2.2893,2.2932,2.2855,2.282,2.2806,2.2984,2.2985,2.2986,2.2987,0,0,2.3216,2.3183,2.3167,2.3149,2.3118,2.3083,2.303,2.2988,2.2961,2.2931,2.2885,2.2822,2.2842,2.2816,2.2818,2.2778,2.2697,2.2804,2.2803,2.2783,2.2597,2.2579,2.2563,2.2707,2.2704,2.2702,2.2599,0,2.3122,2.3033,2.3037,2.2952,2.291,2.293,2.2884,2.2858,2.2849,2.281,2.2798,2.2753,2.2784,2.2768,2.273,2.2715,2.2659,2.2723,2.266,2.2657,2.2665,2.2545,2.2526,2.243,2.2586,2.2583,2.2582,0,2.3,2.2968,2.2879,2.2854,2.2836,2.2795,2.2755,2.2719,2.2689,2.2685,2.2657,2.2665,2.2608,2.2651,2.2571,2.2614,2.2589,2.2577,2.2574,2.2565,2.2613,2.2531,2.24,2.2384,2.2561,2.2563,2.2564,0,2.2917,2.2852,2.279,2.2775,2.2744,2.2714,2.2699,2.2673,2.2647,2.2611,2.2593,2.2551,2.2527,2.2493,2.2488,2.252,2.2406,2.2449,2.2398,2.2398,2.2371,2.2372,2.2231,2.2359,2.236,2.236,2.236,0,2.281,2.2754,2.2753,2.2714,2.2652,2.2656,2.2593,2.2581,2.2557,2.2514,2.2529,2.2488,2.2486,2.2443,2.2439,2.2372,2.2361,2.2354,2.2353,2.2351,2.2352,2.2332,2.2338,2.2356,2.2357,2.2358,2.2358,0,2.2706,2.2704,2.2637,2.2615,2.2607,2.2562,2.2541,2.2503,2.2496,2.2441,2.2429,2.2416,2.2366,2.2359,2.23,2.2297,2.2216,2.2223,2.2226,2.2226,2.2175,2.2179,2.2014,2.1991,2.2137,2.2136,2.2134,0,2.2636,2.2594,2.2568,2.2542,2.2526,2.2483,2.2457,2.246,2.2431,2.2394,2.2359,2.2312,2.2274,2.2193,2.2176,2.2131,2.2135,2.2081,2.2128,2.2127,2.2131,2.2132,2.2127,2.207,2.2069,2.2068,2.2067,0,2.2512,2.2513,2.2476,2.2438,2.2407,2.2376,2.2347,2.2324,2.2323,2.2289,2.224,2.2211,2.2152,2.2103,2.2058,2.2039,2.2051,2.2052,2.2038,2.2034,2.2036,2.2031,2.2198,2.2055,2.2056,2.2057,2.2058,2.2058,2.2421,2.2384,2.2359,2.2317,2.2296,2.2269,2.2232,2.2221,2.2181,2.2134,2.2138,2.2083,2.2052,2.1994,2.1972,2.1927,2.1944,2.1924,2.1918,2.1912,2.1906,2.2046,2.1919,2.1919,2.192,2.192,2.192,0,2.2295,2.2281,2.2242,2.2202,2.2168,2.2187,2.2155,2.2124,2.2077,2.2049,2.2012,2.1954,2.1907,2.1887,2.184,2.1807,2.1811,2.1795,2.1796,2.1791,2.1894,2.1911,2.1792,2.1792,2.1792,2.1792,2.1792,2.1792,2.2226,2.2163,2.2161,2.2087,2.2072,2.2021,2.2001,2.1975,2.1953,2.1888,2.185,2.1839,2.1813,2.1765,2.1721,2.1716,2.1697,2.1677,2.1674,2.1771,2.1784,2.1796,2.1811,2.1673,2.1673,2.1574,2.1573,2.1572]}]]